Skip Page Navigation
NASA JPL Caltech
NASA Logo - Jet Propulsion Laboratory + View the NASA Portal
+ Near-Earth Object (NEO) Program
Search JPL
JPL Home Earth Solar System Stars & Galaxies Technology
JPL Solar System Dynamics
BODIES ORBITS EPHEMERIDES TOOLS PHYSICAL DATA DISCOVERY FAQ SITE MAP
JPL Small-Body Database Browser
Search: [ help ]  
5684 Kogo (1990 UB2)
Classification: Main-belt Asteroid          SPK-ID: 2005684
Ephemeris | Orbit Diagram | Orbital Elements | Physical Parameters | Discovery Circumstances ]

[ show orbit diagram ]
Orbital Elements at Epoch 2457000.5 (2014-Dec-09.0) TDB
Reference: JPL 14 (heliocentric ecliptic J2000)
 Element Value Uncertainty (1-sigma)   Units 
e .2171061428579999 4.8325e-08  
a 2.221668866614337 1.1165e-08 AU
q 1.739330908275994 1.0593e-07 AU
i 5.55650282282331 5.4355e-06 deg
node 91.30023471931004 6.0059e-05 deg
peri 221.6418929448288 6.1658e-05 deg
M 163.245153274089 1.64e-05 deg
tp 2456452.027047299379
(2013-Jun-08.52704730)
5.2982e-05 JED
period 1209.532160753981
3.31
9.118e-06
2.496e-08
d
yr
n .2976357402316515 2.2437e-09 deg/d
Q 2.704006824952681 1.3589e-08 AU
  Orbit Determination Parameters
   # obs. used (total)      977  
   data-arc span      13480 days (36.91 yr)  
   first obs. used      1977-12-07  
   last obs. used      2014-11-03  
   planetary ephem.      DE431  
   SB-pert. ephem.      SB431-BIG16  
   condition code      0  
   fit RMS      .52606  
   data source      ORB  
   producer      Otto Matic  
   solution date      2014-Nov-10 12:59:40  

Additional Information
 Earth MOID = .730726 AU 
 T_jup = 3.612 
[ show covariance matrix ]

Ephemeris | Orbit Diagram | Orbital Elements | Physical Parameters | Discovery Circumstances ]

Physical Parameter Table
Parameter Symbol Value Units Sigma Reference Notes
absolute magnitude H 14.0 mag n/a MPO267730  

5684 Kogo           Discovered 1990 Oct. 21 by T. Urata at the Nihondaira Observatory.
Kogo-no-Tsubone was the lover of emperor Takakura. She is the most well-known heroine in the story of Heike. She excelled at playing Koto, the Japanese lyre, but she was ostracized from the palace and went to live in seclusion.
NOTE: some special characters may not display properly (any characters within {} are an attempt to place the proper accent above a character)
Reference: 19991123/MPCPages.arcLast Updated: 2010-06-11

Alternate Designations
 1990 UB2 = 1977 XD3 
Ephemeris | Orbit Diagram | Orbital Elements | Physical Parameters | Discovery Circumstances ]
ABOUT SSD CREDITS/AWARDS PRIVACY/COPYRIGHT GLOSSARY LINKS
FirstGov 2014-Nov-23 03:30 UT
(server date/time)  
NASA Home Page
Site Manager:   Donald K. Yeomans
Webmaster  Alan B. Chamberlin